Location: Crescent
(42.8242°N, 73.7329°W)
Time: 02:07:43
(UTC+00:00)

Explorer 7 - Pass Details

Date: 23 February 2026
Orbit: 430 x 541 km, 50.2° (Epoch: 13 March)

Event Time Altitude Azimuth Distance (km) Brightness Sun altitude
Rises 19:00:51 0° 263° (W) 2,404 10.6 31.6°
Reaches altitude 10° 19:03:03 10° 273° (W) 1,548 9.6 31.4°
Maximum altitude 19:06:18 36° 342° (NNW) 723 7.4 31.1°
Drops below altitude 10° 19:09:39 10° 51° (NE) 1,597 8.8 30.7°
Sets 19:11:57 0° 60° (ENE) 2,494 9.7 30.5°
